DATE,AVE_SWS,AVE_RWS,AVE_RWD,WD_SD,MAX_WS,MAX_WST,AVE_TEMP,MAX_TEMP,MAX_TEMT,MIN_TEMP,MIN_TEMT,MAX_RH,MAX_RHT,MIN_RH,MIN_RHT,MAX_GSW,MAX_GSWT,TOT_GSW,MAX_DSW,MAX_DSWT,TOT_DSW,MAX_NETR,MAX_NETT,MIN_NETR,TOT_NETR,MAX_GPAR,MAX_GPAT,TOT_GPAR,MAX_DPAR,MAX_DPAT,TOT_DPAR,AVE_BP,AVE_RH,POT_PAR,POT_SW,KT_PAR,KT_SW,tot_prec
01/01/2020,2.593,2.459,179.8,18.37,8.18,1017,0.775,2.038,1332,-1.684,0,83,18,57.36,1617,215.7,1202,2465.986,208.1,1202,2523.60615,,,,,146.8,1206,0.1759656,300.7,1202,3.69012415,742.9,70.18,22.371280766,12650.242318,0.7865691815,19.493587064,0
01/02/2020,1.474,1.033,111.1,43.05,8.53,1452,2.271,9.38,1315,-3.988,229,85,739,41.27,1316,646.4,1049,7305.312,240.1,1029,3483.08301,,,,,883,1048,5.459345,550,950,5.48419984,747.2,63.135,22.466233411,12703.934995,24.300223808,57.504324469,0
01/03/2020,0.906,0.711,68.9,35.76,3.822,930,5.767,8.33,1159,3.775,245,99.7,2338,60.27,59,220.6,1154,2446.506,197,1153,2498.81301,135.5,1154,-25.55,1306.993,275.6,900,1.325328,288.9,1153,3.76459404,745.1,79.985,22.570162108,12762.703343,5.8720358041,19.169183317,0.2
01/04/2020,0.941,0.483,272.37,50.61,7.056,2042,5.092,7.828,1348,2.364,2353,100,3,90,0,116.4,1237,1058.609,111.6,1237,1103.48657,66.43,1237,-16.82,511.1942,183,1237,1.688815,158.8,1237,1.64903375,741.1,95,22.683001468,12826.510385,7.4452889419,8.2532892287,8
01/05/2020,2.191,1.787,258.93,33.95,12.4,304,0.793,4.465,1127,-4.062,2233,90,0,47.51,1439,585.5,1153,3559.634,242.3,1051,2910.60411,316.9,1153,-68.22,198.7247,820,1151,2.584124,336,1051,4.14067783,745.2,68.755,22.804679612,12895.315476,11.331551436,27.604086203,0
01/06/2020,1.5,0.994,163.5,46.14,9.75,1500,0.314,6.544,1516,-3.45,45,98,500,41.53,1510,606.7,1223,4311.147,268,1131,3145.15358,302.5,1217,-61.57,-245.3044,870,1146,1.373096,370.8,1131,4.59033335,748.2,69.765,22.935118247,12969.074343,5.986871248,33.241747915,0
01/07/2020,0.918,0.339,351.9,59.17,6.125,1156,-0.182,4.822,1228,-5.139,757,92.5,813,48.65,1233,512.8,1007,5719.031,241.4,1219,3890.59695,241.5,1226,-61.4,631.1563,530.3,1224,0.009268359,400.5,951,6.13778455,749.6,70.575,23.076224962,13048.865668,0.040164104,43.827801935,0
01/08/2020,2.611,1.603,235.7,49.46,11.71,1852,-1.22,4.34,1201,-4.619,2333,100,301,32.22,1554,631.7,1209,7841.144,258.8,1209,3139.93248,328.3,1210,-76.54,1372.785,952,1208,4.175695,385,948,6.00223324,749.3,66.11,23.22629404,13133.724923,17.97830938,59.70236202,0
01/09/2020,1.244,0.508,298.78,58.12,7.399,17,-5.449,-1.049,1439,-10.57,731,67.95,732,29.53,1444,485.8,1215,9162.296,106.1,1405,1736.01139,189.4,1255,-75.82,-36.86437,243.8,844,0.1899108,401.4,942,4.38361703,766.1,48.74,23.384992187,13223.463639,0.812105467,69.288170257,0
01/10/2020,1.276,1.101,102.1,28.8,5.88,1706,1.908,8.2,1733,-3.674,12,98.2,2342,48.23,2,195.7,847,1952.251,129,931,1865.15568,85,931,-40.05,442.0018,2.571,619,0.003772581,228,847,3.00496977,762.5,73.215,23.552215109,13318.022842,0.0160179456,14.658714909,0
01/11/2020,2.564,2.155,117,32.29,10.49,1448,14.01,20.65,1324,3.419,1,100,7,50.26,1238,591.2,1204,5885.539,270.9,1200,3592.29011,313.7,1236,-27.68,3075.742,906,1229,2.899064,395.8,1200,5.6082135,753.9,75.13,23.727852543,13417.340182,12.217978828,43.865169402,0
01/12/2020,3.377,0.656,194.1,72.22,14.7,650,12.29,20.36,1208,-1.657,2330,99.9,746,32.95,1502,655.6,1131,8924.493,222.5,1130,2184.96713,352.2,1131,-68.62,1706.762,1000,1131,12.99232,372.4,931,4.2321539,751.3,66.425,23.911788385,13521.350006,54.334371778,66.002973046,15.2
01/13/2020,0.567,0.231,295.24,54.49,2.597,946,-0.533,1.292,1725,-3.684,634,100,1703,77.6,1117,122.4,948,1624.957,116.9,948,1658.20937,78.12,948,-52.09,-185.3168,188.8,948,2.606154,170.1,948,2.56060729,760.3,88.8,24.103900836,13629.98344,10.812166951,11.921929378,0
01/14/2020,0.59,0.254,183.1,51.4,3.92,2009,2.5,5.417,1253,-0.045,715,100,0,70.92,1843,397,1133,4074.821,266.9,1134,3860.53039,190.5,1134,-7.841,1541.31,565.9,1133,5.934802,377.9,1133,5.49926691,756.7,85.46,24.304403829,13743.361457,24.41862817,29.64937663,0
01/15/2020,0.919,0.221,181.7,65.53,5.243,1236,3.491,10.12,1419,-2.443,2154,100,0,41.23,1421,549.8,1141,9277.823,169.3,911,2547.15124,255.3,1142,-56.2,2111.144,820,1147,12.57445,316,923,4.36211569,753.1,70.615,24.515785121,13862.890803,51.291239247,66.925601099,0
01/16/2020,2.739,2.141,282,36.85,13.96,1210,1.854,8.37,1251,-4.235,2359,100,158,37.87,1304,685.2,1248,6701.025,259.4,1249,3669.83707,370.1,1248,-72.09,1979.635,985,1248,9.057755,368.6,1248,5.4595593,748.7,68.935,24.735074463,13986.891898,36.619073104,47.909321447,3.1
01/17/2020,2.703,2.344,254.06,29.25,13.72,1026,-8.45,-4.202,0,-11.91,2231,59.92,236,25.12,1553,513.8,1149,10509.1,59.69,1158,1624.93821,203.9,1224,-84.7,-1065.151,778.8,1224,15.48207,293.2,906,3.63660624,764.3,42.52,24.962126967,14115.282813,62.022238812,74.451926606,0
01/18/2020,1.209,0.135,87.7,73.21,6.811,1744,-8.04,-2.174,2218,-11.83,136,100,2016,40.57,1245,313.3,1031,3147.665,228.7,1031,3063.4014,163,1030,-53.53,670.5882,494,1031,5.221859,334.9,1031,4.70226981,757.7,70.285,25.19679278,14247.97881,20.724300293,22.092010678,9.8
01/19/2020,2.264,1.667,260.46,40.47,11.81,2102,-0.47,5.858,1245,-7.201,2359,100,0,46.67,1502,722.1,1243,7443.029,290.4,1243,3643.83839,120.3,1243,-63.7,-765.0652,1094,1243,9.604202,429.9,1243,5.85525437,744,73.335,25.438917266,14384.892446,37.753973173,51.741985751,0
01/20/2020,2.359,2.09,252.96,26.8,11.17,440,-7.717,-3.101,1418,-11.71,2356,66.58,743,20.33,1558,523.9,1158,10887.59,64.4,1201,1789.38215,32.17,1143,-75.65,-3044.636,794.8,1221,16.20325,241.3,847,3.81677779,756.1,43.455,25.688935567,14526.269783,63.074820511,74.951038102,0
01/21/2020,0.88,0.179,270.4,65.02,5.831,1259,-9.78,-2.249,1501,-16.47,717,89.6,643,32.35,1512,635.7,1227,9903.938,274.8,1227,3165.32076,101.8,1226,-70.83,-2728.753,1008,1227,14.69206,407,1226,5.3344164,760.4,60.975,25.949520934,14673.622457,56.617846769,67.494840001,0
01/22/2020,0.876,0.407,92.2,53.56,3.969,1220,-8.02,2.252,1547,-16.29,714,89.4,347,38.8,1512,542.2,1230,10750.29,105.6,1226,1938.32629,63.81,1239,-68.23,-2128.465,863,1230,16.48204,375.1,924,4.46930847,760.7,64.1,26.21719155,14824.981612,62.867298232,72.514693651,0
01/23/2020,0.826,0.53,107.8,43.29,3.038,1515,-3.645,5.633,1439,-13.01,709,98.4,341,31.68,1521,506,1151,9152.675,264.3,1304,5375.47234,130.8,1337,-51.41,-220.1797,763.7,1151,13.55884,386.5,1307,8.57734952,759.1,65.04,26.491773419,14980.248859,51.18132254,61.098284054,0
01/24/2020,0.804,0.396,85.3,52.47,4.949,2308,0.664,12.06,1502,-6.54,740,96.1,730,20.58,1448,543.8,1202,9962.846,205.2,945,2926.91487,208.2,1219,-54.89,1110.594,852,1208,15.39332,365.6,851,4.9404904,758.5,58.34,26.773088702,15139.323636,57.495495463,65.807735137,0
01/25/2020,2.033,1.116,314.1,52.07,13.48,1342,2.873,5.912,1541,-2.285,625,100,1643,71.54,21,227,1052,1973.185,197.9,1053,2018.3203,143.7,1052,-53.96,482.053,380.9,1051,3.445743,309.4,1053,3.25107215,749.6,85.77,27.061058447,15302.161298,12.733215911,12.894812449,17.8
01/26/2020,1.838,1.411,129.3,36.57,9.36,1140,3.174,7.121,1312,-0.822,707,100,0,51,1610,698.7,1240,8365.852,266.3,1246,3588.96234,395.2,1241,-46.41,3528.467,1142,1244,12.51395,393,902,5.43622349,743.7,75.5,27.359854984,15471.121164,45.738363771,54.073986696,0.3
01/27/2020,1.592,1.376,153.1,28.51,8.09,1047,3.501,5.355,1102,0.988,2355,78.87,2242,60.82,1104,533.7,1049,2701.049,268.9,1059,2572.58966,261.8,1049,-10.39,1200.49,870,1053,4.295894,385.8,1059,3.89325873,741.7,69.845,27.664936307,15643.634875,15.528298899,17.266121471,0
01/28/2020,1.369,1.182,218.2,27.62,6.811,1419,0.827,2.232,1350,-1.032,2358,78.2,836,57.18,1359,117,1154,2309.597,110.8,1154,2370.4557,68.74,1155,-20.57,616.4276,190.2,1154,3.722571,167.1,1154,3.55880095,745.3,67.69,27.976109029,15819.593077,13.306249973,14.599598035,0
01/29/2020,2.349,2.017,233,30.31,8.58,627,-1.828,2.533,1406,-5.345,2359,71.5,2350,35.91,1511,571.9,1004,11063.85,173,914,2380.49242,257.4,1004,-79.59,1338.487,856,1120,10.2608,511.2,909,3.88527121,752,53.705,28.293176994,15998.884849,36.265987388,69.153882313,0
01/30/2020,1.161,0.409,255.15,61.87,5.586,14,-4.692,1.541,1426,-9.59,740,79.12,2337,29.82,1522,584.7,1207,11237.81,181.8,1407,2999.10666,250.5,1201,-75.15,846.0447,688.2,1014,0.1548465,350.9,903,5.60737747,757.6,54.47,28.617822216,16182.461318,0.5410841497,69.444380425,0
01/31/2020,0.699,0.479,321.5,41.1,3.087,1354,-2.308,2.982,1602,-9.57,655,99,2359,66.49,23,164.8,1306,3038.105,154.6,1306,3083.18163,106.6,1023,-58.42,380.4509,256.1,1017,1.148718,243.9,1022,4.79313984,757,82.745,28.951120977,16370.931086,3.9677841867,18.557924311,0.2
02/01/2020,0.46,0.234,336,46.1,2.45,1149,1.137,3.137,1330,-0.334,110,100,117,83.9,2350,170.4,1325,2167.602,159.1,1325,2283.80208,104.7,1325,-16.43,1218.247,205.1,959,0.5394905,235.1,1325,3.45434768,747.4,91.95,29.289805715,16562.446451,1.8419053552,13.087450615,0
02/02/2020,1.055,0.679,239.9,43.35,6.027,1702,1.158,5.105,1445,-1.526,741,98,2339,53.74,1446,795.1,1153,5853.774,382.6,1153,4823.35056,450,1154,-26.86,2181.76,890,1111,1.250709,531,1153,7.15447824,738.8,75.87,29.633669018,16756.890129,4.2205674877,34.933534533,0
02/03/2020,1.222,0.439,218.9,61.24,8.38,1448,3.407,11.36,1525,-2.789,2303,100,704,38.4,1448,640.3,1157,10490.04,218.3,1121,2917.05344,333.9,1157,-50.66,2968.167,920,1050,1.597953,322.5,1121,4.7813584,744.4,69.2,29.982763441,16954.291837,5.3295721162,61.872475127,0
02/04/2020,0.966,0.221,81.8,64.72,7.007,2306,4.365,13.32,1456,-2.961,151,96.7,236,49.05,1439,468.4,1403,4738.709,241.3,1304,3670.34304,225.9,1344,-36.99,1864.836,630.2,1423,3.229889,364,1303,5.68411648,745,72.875,30.341724981,17157.273084,10.645040788,27.619243319,0
02/05/2020,1.553,1.25,11.94,33.16,12.01,334,1.321,3.745,0,-2.491,2047,84.7,121,36.03,1008,386.2,1026,5177.469,276.8,1225,4921.3416,216,1026,-40.83,1864.64,349.2,1019,0.7027634,400.6,1224,7.16513504,750.1,60.365,30.705317447,17362.872971,2.2887351717,29.819195294,0.5
02/06/2020,0.889,0.19,51.26,65.31,10.49,2140,0.888,2.562,2236,-1.519,28,100,343,66.17,2,104,1045,1591.018,97.5,1045,1673.448,53.45,1045,-9.53,674.8264,170,1045,2.71218,137.1,1045,2.56070752,741.1,83.085,31.073325793,17570.969897,8.7283222209,9.0548103452,12.2
02/07/2020,2.386,1.236,287.4,54.76,12.69,1558,1.279,6.348,1216,-3.217,2342,100,0,59.49,2225,170.9,1305,1528.187,162.1,1305,1595.10288,106.9,1305,-69.97,-99.72559,295.6,1305,2.537596,243.4,1305,2.43076176,730.3,79.745,31.445534302,17781.44188,8.0698135884,8.5942805443,9.8
02/08/2020,2.476,1.88,279.6,39.39,10.09,1108,-2.973,2.729,1448,-7.31,2301,74.36,2056,46.08,1438,821,1205,10325.61,392.5,1207,5281.84048,464.7,1205,-71.35,2104.212,1313,1136,13.57511,544.3,1207,8.17919872,752.8,60.22,31.827047117,17997.175151,42.652747363,57.373503973,0
02/09/2020,0.634,0.372,331.4,46.25,3.136,1543,-4.171,-0.183,1622,-8.4,332,94.8,0,68.04,1,615.9,1359,4864.54,320.4,1341,4884.7064,329.5,1400,-62.56,1325.352,387,1001,3.220543,450.9,1340,6.97763248,761.6,81.42,32.212740956,18215.272656,9.9977304147,26.705831375,0
02/10/2020,1.452,1.25,179.7,28.93,7.791,517,3.15,6.248,1542,-1.973,3,100,135,88.2,1608,234,1121,2497.063,216.4,1121,2615.93024,154,1121,-11.34,1467.333,372.4,1122,4.05479,311.8,1121,4.02507616,753.4,94.1,32.602056515,18435.418128,12.437221554,13.544921969,11.2
02/11/2020,0.515,0.319,319.8,42.11,3.577,2130,2.921,4.899,1436,0.871,2348,100,0,100,0,111.9,1029,1493.027,105.3,1029,1566.97744,59.57,1029,-12.72,760.4567,171.7,1028,2.463922,154.5,1029,2.4236912,748.4,100,32.994775044,18657.48787,7.4676126651,8.0022938267,1.8
02/12/2020,1.659,0.598,254,64.16,10.98,258,2.521,7.418,1511,-1.922,635,100,0,31.99,1528,678.4,1151,11677.66,298.7,1314,5569.41504,340.5,1152,-64.79,3893.539,357.1,845,0.3210943,429.3,1314,8.16166064,752.3,65.995,33.396522044,18884.662923,0.9614602969,61.836740469,1
02/13/2020,0.665,0.081,265.6,67.83,3.822,2127,0.915,2.422,1414,-0.616,2359,100,8,99.2,0,121.7,1405,1608.416,114.5,1404,1706.65936,62.83,1405,-30.82,484.241,199.5,1404,2.78747,171.3,1404,2.70712176,743.4,99.6,33.80136769,19113.590162,8.2466189698,8.4150386526,15
02/14/2020,2.378,1.961,4.502,33.63,9.8,1343,-5.987,-0.269,132,-13.52,2359,100,0,25.68,1558,647.4,1205,14724.85,63.23,1321,2075.49664,317.9,1206,-88.1,3235.218,979,1201,17.26736,200.1,803,3.97216064,757,62.84,34.209023999,19344.106739,50.476038137,76.120599407,0
02/15/2020,1.289,0.892,187.3,39.2,6.566,1400,-8.65,-1.071,1502,-16.49,718,87.9,729,26.53,1520,679.2,1155,14840.61,192,1454,3079.20256,286.1,1112,-80.1,1747.209,1006,1226,4.757003,261.9,1455,4.95925696,762.6,57.215,34.620211522,19576.620106,13.740537076,75.807825454,0
02/16/2020,1.368,1.061,198.8,37.79,5.978,1246,0.432,6.296,1439,-5.657,28,74.3,2350,38.98,1227,768.1,1223,8412.175,332.5,1432,5291.17792,389.6,1223,-59.8,2940.322,52.41,925,0.1690136,471.9,1432,8.05812336,753.4,56.64,35.038961843,19813.409993,0.4823590401,42.456977386,0
02/17/2020,1.213,0.452,18.77,59.9,5.929,1502,0.34,8.1,1353,-5.866,658,100,550,34.68,1353,657,1151,14801.67,154.5,1416,2868.4096,315.6,1215,-66.3,4294.572,1007,1215,12.94337,231.9,1416,5.06104816,756.3,67.34,35.459925247,20051.451307,36.501402385,73.818447222,0
02/18/2020,1.458,1.03,149.2,40.37,9.51,849,1.085,4.182,1246,-4.418,50,100,1709,58.59,703,152.8,1244,1990.243,142.6,1244,2071.07712,99.7,1244,-42.42,767.742,255,1243,0.6684968,223,1244,3.28874448,755,79.295,35.882885458,20290.621751,1.8629962208,9.8086841519,2.5
02/19/2020,2.245,1.999,327.1,25.54,12.1,1049,1.26,6.502,1139,-5.166,2332,100,0,30.72,1226,769.3,1138,15755.53,168.8,1138,2407.63376,414.3,1138,-72.38,5052.625,1187,1139,16.8715,250.8,1138,4.13885136,755,65.36,36.310179762,20532.242986,46.464931076,76.735552034,0
02/20/2020,1.461,0.832,359,49.35,7.497,1325,-4.17,2.03,1315,-8.46,655,88.4,707,25.96,1357,701.9,1147,12318.42,324.2,1305,6320.00768,356.2,1308,-77.68,1990.084,890,1018,4.244827,457.3,1305,9.86598256,760.3,57.18,36.742795461,20776.873299,11.552814495,59.289094287,0
02/21/2020,1.481,0.675,0.169,58.42,6.86,928,-4.808,1.611,1616,-10.14,622,70.45,430,22.1,1549,676.1,1222,15821.58,67.1,1236,2225.1544,331.4,1211,-75.57,2976.978,1063,1139,1.655561,279.1,815,4.62209776,760.4,46.275,37.176814555,21022.297187,4.4532083231,75.260947266,0
02/22/2020,1.501,0.801,237.2,54.14,6.909,1548,0.258,9.56,1506,-6.41,717,78.33,2308,21.01,1330,709.9,1204,16333.76,73.82,1328,2366.85344,337.7,1210,-69.33,3432.386,1035,1129,2.958871,213.2,800,4.63856176,755,49.67,37.612026937,21268.395841,7.8668214424,76.798269704,0
02/23/2020,1.469,0.859,202.4,51.21,7.84,1430,1.944,13.32,1610,-8.46,551,90.8,726,17.23,1512,700.3,1208,16258.18,182.5,1418,3389.28128,337.5,1217,-62.47,4042.573,7.78,1430,0.05728327,262,1421,5.72477584,753.2,54.015,38.052873456,21517.68042,0.1505359906,75.557307679,0
02/24/2020,1.557,1.177,182.5,39.65,7.301,1338,6.886,18.5,1440,-5.627,508,83.4,510,14.92,1302,714.8,1143,15291.6,200.1,1346,3574.9224,354.8,1155,-54.1,4782.349,6.593,1304,0.027948,280.5,1346,5.7263136,749.7,49.16,38.496297325,21768.422407,0.0725991899,70.246707429,0
02/25/2020,0.849,0.167,86.5,67.17,3.626,1636,7.052,13.26,1352,2.921,544,100,1920,40.3,1352,356.7,1133,5613.125,308.4,1130,5670.74032,206.6,1131,-14.23,2841.339,2.439,1636,0.01068545,458.3,1130,8.62822688,746.9,70.15,38.940334284,22019.511076,0.0274405708,25.491596887,2.3
02/26/2020,1.157,0.3,40.37,67.46,8.87,2329,4.929,7.278,2122,2.956,800,100,0,89.9,2234,190.6,1120,2496.762,175.4,1120,2550.34192,101,1120,-4.096,1215.849,306.2,1120,4.114494,250.7,1120,3.81084256,747.4,94.95,39.38537379,22271.166654,10.446756255,11.210737357,1
02/27/2020,4.794,2.824,256.1,51.88,14.75,1223,2.679,6.858,3,-3.032,2219,100,542,35.34,1706,1045,1152,10350.63,400.7,1159,6829.98848,637.6,1158,-76.09,4410.768,1598,1151,15.93493,563.7,1159,9.708216,737.6,67.67,39.836562404,22526.299356,40.000765725,45.949091932,9.5
02/28/2020,3.443,3.168,256.9,20.63,13.13,807,-2.003,3.661,1352,-5.774,2207,64.07,2119,27.02,1609,967,1124,13738.55,303.9,1035,6226.5672,549.1,1124,-76.14,3251.9,1550,1126,21.57964,421.3,1035,8.92388112,744.4,45.545,40.287797389,22781.458279,53.563712584,60.305840968,0
02/29/2020,2.692,2.247,280.5,32.85,9.31,1013,-3.973,0.788,1306,-8.97,2323,64.79,1205,28.28,1548,840,1127,10934.72,364.6,1302,6756.55232,467.9,1127,-73.76,1993.428,1343,1127,13.24431,506.8,1302,9.66261968,746.6,46.535,40.738885043,23036.533891,32.510241716,47.466863079,0
03/01/2020,1.328,0.486,305.4,57.02,8.97,1417,-3.781,4.974,1521,-11.67,645,88.1,712,21.41,1330,740.6,1221,17920.39,64.74,1117,2317.0212,372.4,1204,-65.83,5226.411,1195,1147,21.30996,112.3,1037,4.10914179,752.3,54.755,41.192877318,23293.251973,51.732147369,76.933826246,0
03/02/2020,2.073,1.884,167.7,24.18,8.87,1555,7.171,17.6,1445,-3.433,0,75.52,125,24.7,1447,857,1133,13167.04,346.3,1013,4768.93053,458.7,1133,-51.18,5471.28,1465,1131,19.98756,497,1013,7.32002544,747.8,50.11,41.649715765,23551.579474,47.989667235,55.907248236,0
03/03/2020,1.798,1.431,180.5,36.24,9.6,2235,10.89,18.22,1339,6.822,546,100,1703,39.71,1339,770.2,1333,10318.8,336,1332,5933.22678,446.7,1334,-43.93,4441.224,1238,1333,16.26059,495.1,1333,9.19550736,740.6,69.855,42.105866178,23809.517914,38.618348168,43.338970732,6.1
03/04/2020,3.549,3.206,277.4,25.16,13.13,512,6.642,12.41,1339,1.71,2352,94.8,0,25.1,1341,879,1151,14619.28,201.6,1125,3932.15472,502.5,1125,-60.36,5274.444,1392,1153,22.97317,290.6,1125,6.13114632,742.5,59.95,42.561147323,24066.96481,53.976857873,60.744178234,0
03/05/2020,1.67,0.73,306,59.31,9.46,311,3.838,11.6,1501,-2.626,2359,81.2,2328,22.88,1510,748.6,1150,18466.85,75.84,857,2433.80241,387.2,1151,-67.26,5916.586,1212,1209,12.2957,136.8,856,4.28557662,751.6,52.04,43.021481476,24327.269021,28.580373288,75.910082566,0
03/06/2020,1.31,0.545,68.37,58.22,7.595,2019,2.297,9.42,1121,-4.802,604,99.4,706,41.36,1116,598.7,948,8001.533,361.4,1113,5459.83308,320.3,1133,-47.38,2179.223,989,1134,4.578828,528.4,1113,8.42284404,748,70.38,43.481165163,24587.205414,10.530600969,32.543482943,1
03/07/2020,2.941,2.169,40.83,40.09,14.6,1222,0.649,6.125,1523,-5.9,2349,86.9,116,17.38,1556,775.8,1201,18790.34,148.3,944,3439.32732,407.5,1213,-80.8,6301.977,1275,1213,29.88399,218.6,946,5.46696423,755.1,52.14,43.939470134,24846.362187,68.011721372,75.626121274,0
03/08/2020,1.533,0.979,287.3,45.67,7.742,1628,4.484,16.48,1529,-8.18,325,85.1,701,13.26,1537,839,958,18471,269.9,900,3842.66259,410.9,958,-63.72,6110.859,1303,957,19.82988,389.3,900,6.27682419,759.1,49.18,44.398613356,25105.992965,44.663286758,73.572075105,0
03/09/2020,2.29,1.996,285.9,28.93,9.06,1535,14.86,24.18,1434,5.841,636,37.53,8,12.16,1445,834,1110,18917.6,213.1,1033,3712.46382,433.6,1111,-60.41,6650.097,1409,1109,25.40945,316.1,1033,6.05905677,756.5,24.845,44.860356331,25367.093819,56.64121304,74.575353941,0
03/10/2020,2.419,1.693,302.6,44.34,11.71,1400,14.24,18.42,1332,9.06,2359,78.76,2117,25.01,5,691.8,905,6363.078,372.3,938,6083.23365,370.5,905,-56,2307.072,1063,904,8.230759,558.7,938,9.31867209,750.4,51.885,45.320235714,25627.140872,18.161333167,24.829449496,0
03/11/2020,1.37,1.098,78.96,34.99,7.056,53,5.728,10.5,1441,0.377,645,75.19,646,23.82,1443,846,1154,13302.02,358.9,1128,8183.06424,483.5,1154,-66,4189.455,1497,1154,20.73487,514.9,1130,11.8910025,752.7,49.505,45.778094462,25886.045321,45.294305592,51.38683733,0
03/12/2020,1.58,1.329,218,31.18,6.811,2059,4.834,9.04,1405,-1.894,236,97.7,2338,51.42,1112,422.2,1102,5312.333,357.9,1102,5506.93845,247.6,1103,-51.01,2264.565,779.2,1102,6.214212,514.2,1102,8.18583714,753.6,74.56,46.239175594,26146.771924,13.439279399,20.317357016,0.5
03/13/2020,3.077,0.762,310.4,70.06,12.94,1512,9.98,19.14,1523,3.338,0,100,536,17.14,1733,1050,1233,7084.76,421.3,1232,4553.83305,584.3,1233,-79.36,2039.094,1832,1232,8.788736,604.9,1232,6.73172604,747.2,58.57,46.699243952,26406.925836,18.819867853,26.829173695,6.5
03/14/2020,2.068,1.621,16.56,37.18,8.18,1232,5.496,11.49,1354,0.77,448,61.41,418,29.51,1422,893,1202,15992.39,351.8,1237,6241.67973,483.9,1202,-65.02,5860.553,1432,1131,3.268883,490.9,1237,9.26329716,756.9,45.46,47.15684364,26665.683794,6.9319376525,59.973672992,0
03/15/2020,2.003,1.735,69.33,29.35,8.77,1226,4.277,10,1448,-1.931,2352,68.37,650,16.03,1704,792,1203,19004.2,233.6,903,3460.72311,433.1,1212,-80.2,7085.947,1389,1212,9.841887,340.9,903,5.51614401,761.4,42.2,47.613540035,26923.93097,20.670353418,70.5847895,0
03/16/2020,1.876,1.012,225.4,52.83,9.02,1729,1.097,9.87,1450,-6.965,624,73.61,2357,17.49,1345,822,1219,19650.3,270.6,1407,5038.89867,435.3,1219,-69.98,6693.261,1425,1238,11.41453,372.3,1405,7.53604839,763.4,45.55,48.072480234,27183.446944,23.744416649,72.287742024,0
03/17/2020,1.523,0.662,322.5,59.99,6.566,1539,4.531,10.56,1609,0.327,323,100,342,52.89,2208,788.4,1436,5465.75,382.3,1340,5214.42324,469.7,1437,-62.17,1890.393,1285,1506,8.104467,526.1,1340,7.58891133,754.8,76.445,48.528530974,27441.329022,16.700416925,19.917949293,1.3
03/18/2020,1.352,0.499,233.5,60.25,7.105,2127,6.084,14.18,1406,-3.25,625,86.3,244,20.99,1322,817,1155,18793.1,246.9,1448,5374.08963,446.3,1155,-62.52,7376.196,996,1418,0.6099066,351.5,1451,8.07956136,760.3,53.645,48.981560981,27697.502972,1.2451759147,67.851242831,0
03/19/2020,1.28,0.802,158,47.91,5.047,1455,5.781,9.14,1425,1.839,341,100,413,67.97,0,267.5,1106,4791.602,240.2,1102,5017.19049,147.8,1102,-13.75,2434.733,503.4,1102,4.712114,366.9,1102,7.51343346,756.8,83.985,49.436127091,27954.54554,9.5317215915,17.140690029,15.8
03/20/2020,1.952,0.772,270.7,62.58,8.92,2235,11.79,22.16,1637,5.965,326,100,206,61.55,1638,633.9,1331,5728.206,380.4,1334,5326.46829,394.1,1426,-29.1,3091.71,1178,1332,6.975745,540.4,1334,7.79320737,748.1,80.775,49.889410055,28210.862529,13.982416293,20.304965841,3.6
03/21/2020,2.627,2.251,63.53,30.13,11.91,423,4.214,8.68,0,-1.181,2357,72.01,31,21.54,1634,862,1157,20899.84,182,841,3662.65224,495.5,1157,-78.9,7964.156,1072,925,0.2469457,269.8,840,5.90037201,757.8,46.775,50.339289689,28465.255044,0.4905625437,73.422282596,0
03/22/2020,1.801,0.391,71.76,68.99,7.987,2019,0.567,7.658,1512,-5.781,611,65.75,2255,18.89,1604,852,1211,21935.63,105.4,1542,3081.47346,461.7,1156,-71.87,7819.089,1451,1130,0.9149342,147.7,1542,5.16424779,765.8,42.32,50.786570237,28718.177859,1.8015278365,76.382387864,0
03/23/2020,2.19,1.065,175.3,57.75,7.644,135,0.135,1.32,1120,-1.283,702,100,1646,59.35,432,291.7,1029,2808.483,252.8,1029,2906.05887,189.5,1029,-22.29,1064.668,190.7,1203,1.286323,371,1029,4.51170252,758.3,79.675,51.235938017,28972.280938,2.5105873919,9.6936896548,18.2
03/24/2020,1.748,1.388,80.8,35.98,7.791,1058,2.46,8.61,1535,-2.497,2355,100,0,54.06,1536,1082,1057,17133.21,447.5,1250,8962.34391,726.8,1057,-64.97,7913.547,2204,1117,28.97406,596.8,1118,12.1262193,753.3,77.03,51.681546913,29224.258487,56.062679488,58.626671426,0
03/25/2020,1.168,0.791,157,41.32,6.517,957,1.999,7.811,1436,-3.341,207,100,6,58.89,1444,531.2,1429,6016.667,350.5,1402,6012.31527,322.9,1430,-55.23,2454.021,966,1429,11.22358,516.1,1005,9.27630756,752.7,79.445,52.123290848,29474.050525,21.53275401,20.413437898,0
03/26/2020,1.399,0.694,268.3,55.6,5.782,1327,6.175,15.9,1607,-5.498,552,100,0,34.71,1423,891,1154,21097.46,243.7,1517,4331.04867,498.5,1154,-38.41,10087.31,1506,1154,35.23438,342.9,1517,6.88542777,748.8,67.355,52.564775058,29723.695698,67.030401939,70.978589656,0
03/27/2020,1.822,1.159,67.15,47.03,9.16,1233,10.69,17.2,1424,2.791,2133,84,602,16.22,1505,962,1131,22618.89,241.3,1134,3296.21526,548.7,1126,-73.5,9801.423,1724,1130,37.56469,338.6,1133,5.47137045,747.2,50.11,53.005062486,29972.664128,70.870004181,75.465063444,0
03/28/2020,0.957,0.41,169.3,57.02,5.488,1101,4.442,10.19,1105,-2.112,415,100,1834,28.37,1015,291.9,1113,4348.484,253.9,1113,4459.48542,174.3,1113,-64.11,1291.739,580.2,1113,8.676979,418.2,1113,7.07170932,753,64.185,53.441165683,30219.26651,16.236507735,14.389773486,9.9
03/29/2020,1.476,0.74,174.8,55.53,9.75,1125,7.145,9.33,1120,5.088,2353,100,0,94.9,1235,192.4,939,2240.794,172,939,2312.62785,127.2,939,-10.73,1166.464,378.6,1005,4.546202,256.6,1005,3.67524729,749.5,97.45,53.872992377,30463.450666,8.4387404512,7.3556801709,6